Hourly Weather Otok

Today, 30 July, Friday

Time Temperature Precipitation Wind Pressure Humidity
00:00 +18°C° 0 mm 2 mps 741 mmHg 71%
01:00 +17°C° 0 mm 2 mps 741 mmHg 76%
02:00 +16°C° 0 mm 2 mps 741 mmHg 78%
03:00 +16°C° 0 mm 2 mps 741 mmHg 79%
04:00 +15°C° 0 mm 2 mps 741 mmHg 81%
05:00 +17°C° 0 mm 2 mps 741 mmHg 75%
06:00 +18°C° 0 mm 2 mps 741 mmHg 70%
07:00 +20°C° 0 mm 2 mps 741 mmHg 65%
08:00 +21°C° 0 mm 3 mps 740 mmHg 60%
09:00 +22°C° 0 mm 4 mps 740 mmHg 54%
10:00 +25°C° 0 mm 5 mps 740 mmHg 49%
11:00 +25°C° 0 mm 5 mps 740 mmHg 47%
12:00 +26°C° 0 mm 5 mps 740 mmHg 45%
13:00 +27°C° 0 mm 5 mps 740 mmHg 43%
14:00 +27°C° 0 mm 5 mps 739 mmHg 43%
15:00 +27°C° 0 mm 4 mps 739 mmHg 43%
16:00 +27°C° 0 mm 4 mps 739 mmHg 43%
17:00 +26°C° 0 mm 3 mps 738 mmHg 50%
18:00 +25°C° 0 mm 2 mps 738 mmHg 56%
19:00 +23°C° 0 mm 1 mps 738 mmHg 63%
20:00 +22°C° 0 mm 1 mps 738 mmHg 65%
21:00 +21°C° 0 mm 1 mps 738 mmHg 67%
22:00 +20°C° 0 mm 1 mps 738 mmHg 70%
23:00 +20°C° 0 mm 1 mps 738 mmHg 70%

Tomorrow, 31 July, Saturday

Time Temperature Precipitation Wind Pressure Humidity
00:00 +18°C° 0 mm 2 mps 738 mmHg 70%
01:00 +18°C° 0 mm 2 mps 738 mmHg 71%
02:00 +18°C° 0 mm 2 mps 738 mmHg 71%
03:00 +18°C° 0 mm 2 mps 737 mmHg 72%
04:00 +18°C° 0 mm 2 mps 737 mmHg 73%
05:00 +19°C° 0 mm 3 mps 738 mmHg 73%
06:00 +20°C° 0 mm 3 mps 738 mmHg 72%
07:00 +21°C° 0 mm 4 mps 738 mmHg 72%
08:00 +22°C° 0 mm 5 mps 738 mmHg 65%
09:00 +22°C° 0 mm 5 mps 738 mmHg 57%
10:00 +23°C° 0 mm 6 mps 739 mmHg 50%
11:00 +24°C° 0 mm 6 mps 739 mmHg 46%
12:00 +26°C° 0 mm 6 mps 738 mmHg 43%
13:00 +26°C° 0 mm 6 mps 738 mmHg 39%
14:00 +26°C° 0 mm 6 mps 738 mmHg 40%
15:00 +26°C° 0 mm 6 mps 738 mmHg 41%
16:00 +26°C° 0 mm 6 mps 738 mmHg 42%
17:00 +25°C° 0 mm 5 mps 738 mmHg 48%
18:00 +22°C° 0 mm 4 mps 738 mmHg 53%
19:00 +21°C° 0 mm 3 mps 738 mmHg 59%
20:00 +20°C° 0 mm 2 mps 739 mmHg 63%
21:00 +18°C° 0 mm 2 mps 739 mmHg 67%
22:00 +17°C° 0 mm 2 mps 739 mmHg 71%
23:00 +16°C° 0 mm 2 mps 739 mmHg 73%

Day after tomorrow, 1 August, Sunday

Time Temperature Precipitation Wind Pressure Humidity
00:00 +16°C° 0 mm 2 mps 739 mmHg 74%
01:00 +16°C° 0 mm 2 mps 739 mmHg 75%
02:00 +16°C° 0 mm 2 mps 739 mmHg 74%
03:00 +16°C° 0 mm 2 mps 739 mmHg 74%
04:00 +15°C° 0 mm 1 mps 739 mmHg 73%
05:00 +16°C° 0 mm 1 mps 739 mmHg 72%
06:00 +18°C° 0 mm 1 mps 739 mmHg 70%
07:00 +19°C° 0 mm 1 mps 739 mmHg 68%
08:00 +19°C° 0.2 mm 1 mps 739 mmHg 69%
09:00 +19°C° 0.2 mm 1 mps 739 mmHg 69%
10:00 +20°C° 0.2 mm 1 mps 739 mmHg 70%
11:00 +21°C° 0.1 mm 1 mps 739 mmHg 65%
12:00 +21°C° 0.1 mm 2 mps 739 mmHg 60%
13:00 +24°C° 0.1 mm 2 mps 739 mmHg 55%
14:00 +23°C° 0.1 mm 2 mps 739 mmHg 60%
15:00 +21°C° 0.1 mm 2 mps 739 mmHg 66%
16:00 +20°C° 0.1 mm 2 mps 739 mmHg 71%
17:00 +19°C° 0 mm 2 mps 739 mmHg 74%
18:00 +19°C° 0 mm 2 mps 738 mmHg 77%
19:00 +18°C° 0 mm 2 mps 738 mmHg 80%
20:00 +18°C° 0 mm 2 mps 738 mmHg 80%
21:00 +17°C° 0 mm 2 mps 739 mmHg 81%
22:00 +17°C° 0 mm 2 mps 739 mmHg 82%
23:00 +17°C° 0 mm 2 mps 739 mmHg 82%

2 August, Monday

Time Temperature Precipitation Wind Pressure Humidity
00:00 +16°C° 0 mm 2 mps 739 mmHg 83%
01:00 +16°C° 0 mm 2 mps 739 mmHg 83%
02:00 +16°C° 0 mm 2 mps 739 mmHg 84%
03:00 +15°C° 0 mm 2 mps 739 mmHg 85%
04:00 +15°C° 0 mm 2 mps 739 mmHg 86%
05:00 +16°C° 0 mm 3 mps 739 mmHg 82%
06:00 +17°C° 0 mm 3 mps 739 mmHg 79%
07:00 +18°C° 0 mm 4 mps 740 mmHg 75%
08:00 +19°C° 0.1 mm 4 mps 740 mmHg 70%
09:00 +20°C° 0.1 mm 4 mps 740 mmHg 65%
10:00 +21°C° 0.1 mm 5 mps 740 mmHg 60%
11:00 +21°C° 0.3 mm 5 mps 741 mmHg 62%
12:00 +21°C° 0.3 mm 5 mps 741 mmHg 64%
13:00 +21°C° 0.3 mm 5 mps 741 mmHg 66%
14:00 +20°C° 0.4 mm 5 mps 741 mmHg 66%
15:00 +20°C° 0.4 mm 5 mps 741 mmHg 67%
16:00 +20°C° 0.4 mm 4 mps 741 mmHg 67%
17:00 +19°C° 0.4 mm 3 mps 741 mmHg 72%
18:00 +18°C° 0.4 mm 3 mps 741 mmHg 77%
19:00 +17°C° 0.4 mm 2 mps 742 mmHg 82%
20:00 +17°C° 0 mm 2 mps 742 mmHg 85%
21:00 +16°C° 0 mm 2 mps 742 mmHg 88%
22:00 +15°C° 0 mm 2 mps 743 mmHg 90%
23:00 +14°C° 0 mm 2 mps 743 mmHg 91%

3 August, Tuesday

Time Temperature Precipitation Wind Pressure Humidity
00:00 +14°C° 0 mm 2 mps 743 mmHg 91%
01:00 +14°C° 0 mm 2 mps 743 mmHg 91%
02:00 +14°C° 0 mm 2 mps 743 mmHg 91%
03:00 +13°C° 0 mm 2 mps 743 mmHg 91%
04:00 +13°C° 0 mm 2 mps 743 mmHg 91%
05:00 +15°C° 0 mm 2 mps 743 mmHg 86%
06:00 +16°C° 0 mm 2 mps 743 mmHg 80%
07:00 +19°C° 0 mm 1 mps 743 mmHg 75%
08:00 +19°C° 0.1 mm 2 mps 743 mmHg 69%
09:00 +21°C° 0.1 mm 2 mps 743 mmHg 62%
10:00 +23°C° 0.1 mm 2 mps 743 mmHg 56%
11:00 +24°C° 0.3 mm 2 mps 743 mmHg 54%
12:00 +24°C° 0.3 mm 2 mps 743 mmHg 53%
13:00 +25°C° 0.3 mm 3 mps 742 mmHg 52%
14:00 +24°C° 0.2 mm 2 mps 742 mmHg 52%
15:00 +24°C° 0.2 mm 2 mps 742 mmHg 53%
16:00 +24°C° 0.2 mm 2 mps 742 mmHg 53%
17:00 +23°C° 0.4 mm 1 mps 741 mmHg 60%
18:00 +22°C° 0.4 mm 1 mps 741 mmHg 66%
19:00 +21°C° 0.4 mm 1 mps 741 mmHg 73%
20:00 +19°C° 2.9 mm 2 mps 741 mmHg 80%
21:00 +17°C° 2.9 mm 3 mps 741 mmHg 86%
22:00 +16°C° 2.9 mm 3 mps 742 mmHg 93%
23:00 +16°C° 0.9 mm 3 mps 741 mmHg 93%

4 August, Wednesday

Time Temperature Precipitation Wind Pressure Humidity
00:00 +16°C° 0.9 mm 3 mps 741 mmHg 93%
01:00 +15°C° 0.9 mm 2 mps 741 mmHg 92%
02:00 +15°C° 0.1 mm 2 mps 741 mmHg 93%
03:00 +13°C° 0.1 mm 3 mps 741 mmHg 93%
04:00 +13°C° 0.1 mm 3 mps 740 mmHg 94%
05:00 +13°C° 0 mm 3 mps 741 mmHg 92%
06:00 +14°C° 0 mm 3 mps 741 mmHg 91%
07:00 +14°C° 0 mm 3 mps 741 mmHg 90%
08:00 +16°C° 0.1 mm 3 mps 741 mmHg 85%
09:00 +17°C° 0.1 mm 4 mps 741 mmHg 81%
10:00 +18°C° 0.1 mm 4 mps 741 mmHg 76%
11:00 +19°C° 0 mm 4 mps 741 mmHg 72%
12:00 +20°C° 0 mm 4 mps 741 mmHg 67%
13:00 +20°C° 0 mm 3 mps 741 mmHg 62%
14:00 +21°C° 0 mm 3 mps 741 mmHg 61%
15:00 +21°C° 0 mm 3 mps 740 mmHg 59%
16:00 +21°C° 0 mm 3 mps 740 mmHg 58%
17:00 +20°C° 0 mm 2 mps 740 mmHg 62%
18:00 +19°C° 0 mm 2 mps 740 mmHg 67%
19:00 +19°C° 0 mm 1 mps 740 mmHg 72%
20:00 +18°C° 0 mm 1 mps 740 mmHg 74%
21:00 +18°C° 0 mm 1 mps 740 mmHg 76%
22:00 +16°C° 0 mm 1 mps 740 mmHg 79%
23:00 +16°C° 0 mm 1 mps 739 mmHg 79%
Show more